Wichita, KS

9:53 PM CST on December 11, 2019 (GMT -0600)
Wichita Eisenhower National Airport

Weather History for KICT - November, 2019

Change the Weather History Date:

Saturday, November 16, 2019

  Actual Average Record
Temperature  
Mean Temperature 50 °F 45 °F  
Max Temperature 65 °F 56 °F 84 °F (2016)
Min Temperature 35 °F 34 °F 10 °F (1955)
Degree Days  
Heating Degree Days 15 20  
Month to date heating degree days 365 259  
Since 1 July heating degree days 712 545  
Cooling Degree Days 0 0  
Month to date cooling degree days 0 0  
Year to date cooling degree days 1881 1684  
Moisture  
Dew Point 30 °F    
Average Humidity 49    
Maximum Humidity 70    
Minimum Humidity 28    
Precipitation  
Precipitation 0.00 in 0.04 in 2.91 in (1928)
Month to date precipitation 0.01 0.86  
Year to date precipitation 39.70 30.87  
Snow  
Snow 0.00 in 0.00 in 1.80 in (2014)
Month to date snowfall T 0.3  
Since 1 July snowfall 0.4 0.4  
Since 1 September snowfall 0.4 0.4  
Snow Depth 0.00 in    
Sea Level Pressure  
Sea Level Pressure 30.06 in    
Wind  
Wind Speed 14 mph (SSE)    
Max Wind Speed 29 mph    
Max Gust Speed 38 mph    
Visibility 10 miles    
Events      
T = Trace of Precipitation, MM = Missing Value Source: NWS Daily Summary

Daily Weather History Graph

Daily Weather History Graph

Search for Another Location

Airport or City:

Astronomy

Nov. 16, 2019 Rise Set
Actual Time 7:10 AM CST 5:18 PM CST
Civil Twilight 6:42 AM CST 5:46 PM CST
Nautical Twilight 6:10 AM CST 6:17 PM CST
Astronomical Twilight 5:39 AM CST 6:48 PM CST
Moon 8:54 PM CST (11/16) 11:03 AM CST (11/16)
Length of Visible Light 11h 03m
Length of Day
10h 07m
Waning Gibbous, 82% of the Moon is Illuminated
Nov 16
Waning Gibbous
Nov 19
Last Quarter
Nov 26
New
Dec 4
First Quarter
Dec 11
Full

Hourly Weather History & Observations

Time (CST) Temp. Windchill Dew Point Humidity Pressure Visibility Wind Dir Wind Speed Gust Speed Precip Events Conditions
12:53 AM 39.9 °F 33.4 °F 27.0 °F 60% 30.19 in 10.0 mi SSE 10.4 mph - N/A   Mostly Cloudy
3:53 AM 37.9 °F 30.5 °F 27.0 °F 65% 30.16 in 10.0 mi SSE 11.5 mph - N/A   Scattered Clouds
4:53 AM 37.9 °F 29.6 °F 27.0 °F 65% 30.16 in 10.0 mi SSE 13.8 mph - N/A   Clear
5:53 AM 37.0 °F 29.8 °F 27.0 °F 67% 30.17 in 10.0 mi SSE 10.4 mph - N/A   Scattered Clouds
6:53 AM 36.0 °F 29.6 °F 27.0 °F 70% 30.18 in 10.0 mi SE 8.1 mph - N/A   Partly Cloudy
7:53 AM 37.9 °F 30.9 °F 28.0 °F 68% 30.17 in 10.0 mi SSE 10.4 mph - N/A   Scattered Clouds
8:53 AM 45.0 °F 37.6 °F 28.9 °F 53% 30.16 in 10.0 mi SSE 17.3 mph - N/A   Scattered Clouds
9:53 AM 51.1 °F - 30.0 °F 44% 30.14 in 10.0 mi South 19.6 mph 25.3 mph N/A   Scattered Clouds
10:53 AM 55.0 °F - 30.0 °F 38% 30.11 in 10.0 mi South 20.7 mph 28.8 mph N/A   Scattered Clouds
11:53 AM 57.9 °F - 30.9 °F 36% 30.07 in 10.0 mi South 18.4 mph 28.8 mph N/A   Scattered Clouds
12:53 PM 63.0 °F - 30.9 °F 30% 30.01 in 10.0 mi South 25.3 mph 33.4 mph N/A   Mostly Cloudy
1:53 PM 64.9 °F - 30.9 °F 28% 29.98 in 10.0 mi South 25.3 mph 33.4 mph N/A   Mostly Cloudy
2:53 PM 64.0 °F - 30.9 °F 29% 29.96 in 10.0 mi South 17.3 mph 33.4 mph N/A   Mostly Cloudy
3:53 PM 63.0 °F - 30.9 °F 30% 29.95 in 10.0 mi SSE 19.6 mph - N/A   Scattered Clouds
4:53 PM 59.0 °F - 30.9 °F 35% 29.96 in 10.0 mi SSE 13.8 mph - N/A   Mostly Cloudy
5:53 PM 55.9 °F - 30.9 °F 39% 29.97 in 10.0 mi South 12.7 mph - N/A   Mostly Cloudy
6:53 PM 55.0 °F - 30.9 °F 40% 29.99 in 10.0 mi South 11.5 mph - N/A   Mostly Cloudy
7:53 PM 54.0 °F - 32.0 °F 43% 30.00 in 10.0 mi South 12.7 mph - N/A   Mostly Cloudy
8:53 PM 53.1 °F - 32.0 °F 45% 30.01 in 10.0 mi South 11.5 mph - N/A   Overcast
9:53 PM 52.0 °F - 32.0 °F 47% 30.00 in 10.0 mi South 10.4 mph - N/A   Overcast
10:53 PM 51.1 °F - 32.0 °F 48% 30.01 in 10.0 mi South 10.4 mph - N/A   Overcast
11:53 PM 50.0 °F - 32.0 °F 50% 30.00 in 10.0 mi South 10.4 mph - N/A   Overcast